Time,TemperatureF,DewpointF,PressureIn,WindDirection,WindDirectionDegrees,WindSpeedMPH,WindSpeedGustMPH,Humidity,HourlyPrecipIn,Conditions,Clouds,dailyrainin,SoftwareType,DateUTC
2013-07-15 00:02:00,70.9,65.8,30.21,ESE,123,0.0,0.0,84,0.00,,,0.00,meteohub,2013-07-15 05:02:00,
2013-07-15 00:07:00,70.7,65.7,30.21,ESE,123,0.0,0.0,84,0.00,,,0.00,meteohub,2013-07-15 05:07:00,
2013-07-15 00:12:00,70.5,65.8,30.21,ESE,123,0.0,0.0,85,0.00,,,0.00,meteohub,2013-07-15 05:12:00,
2013-07-15 00:17:00,70.3,65.7,30.21,ESE,123,0.0,0.0,85,0.00,,,0.00,meteohub,2013-07-15 05:17:00,
2013-07-15 00:22:00,70.0,65.3,30.21,ESE,123,0.0,0.0,85,0.00,,,0.00,meteohub,2013-07-15 05:22:00,
2013-07-15 00:27:00,69.8,65.5,30.21,ESE,123,0.0,0.0,86,0.00,,,0.00,meteohub,2013-07-15 05:27:00,
2013-07-15 00:32:00,69.6,65.3,30.21,ESE,123,0.0,0.0,86,0.00,,,0.00,meteohub,2013-07-15 05:32:00,
2013-07-15 00:37:00,69.8,65.8,30.21,ESE,123,0.0,0.0,87,0.00,,,0.00,meteohub,2013-07-15 05:37:00,
2013-07-15 00:42:00,69.8,65.8,30.22,ESE,123,0.0,0.0,87,0.00,,,0.00,meteohub,2013-07-15 05:42:00,
2013-07-15 00:47:00,70.0,66.0,30.22,ESE,123,0.0,0.0,87,0.00,,,0.00,meteohub,2013-07-15 05:47:00,
2013-07-15 00:52:00,69.8,65.5,30.21,ESE,123,0.0,0.0,86,0.00,,,0.00,meteohub,2013-07-15 05:52:00,
2013-07-15 00:57:00,69.6,65.3,30.22,ESE,123,0.0,0.0,86,0.00,,,0.00,meteohub,2013-07-15 05:57:00,
2013-07-15 01:02:00,69.4,65.5,30.21,ESE,123,0.0,0.0,87,0.00,,,0.00,meteohub,2013-07-15 06:02:00,
2013-07-15 01:07:00,69.4,65.5,30.21,ESE,123,0.0,0.0,87,0.00,,,0.00,meteohub,2013-07-15 06:07:00,
2013-07-15 01:12:00,69.4,65.7,30.21,ESE,123,0.0,0.0,88,0.00,,,0.00,meteohub,2013-07-15 06:12:00,
2013-07-15 01:17:00,69.6,65.7,30.21,ESE,123,0.0,0.0,87,0.00,,,0.00,meteohub,2013-07-15 06:17:00,
2013-07-15 01:22:00,69.4,65.5,30.21,ESE,123,0.0,0.0,87,0.00,,,0.00,meteohub,2013-07-15 06:22:00,
2013-07-15 01:27:00,69.3,65.3,30.21,ESE,123,0.0,0.0,87,0.00,,,0.00,meteohub,2013-07-15 06:27:00,
2013-07-15 01:32:00,69.1,65.3,30.21,ESE,123,0.0,0.0,88,0.00,,,0.00,meteohub,2013-07-15 06:32:00,
2013-07-15 01:37:00,68.9,65.1,30.21,ESE,123,0.0,0.0,88,0.00,,,0.00,meteohub,2013-07-15 06:37:00,
2013-07-15 01:42:00,68.7,64.9,30.21,ESE,123,0.0,0.0,88,0.00,,,0.00,meteohub,2013-07-15 06:42:00,
2013-07-15 01:47:00,68.5,65.1,30.21,ESE,123,0.0,0.0,89,0.00,,,0.00,meteohub,2013-07-15 06:47:00,
2013-07-15 01:52:00,68.5,65.1,30.22,ESE,123,0.0,0.0,89,0.00,,,0.00,meteohub,2013-07-15 06:52:00,
2013-07-15 01:57:00,68.4,64.9,30.22,ESE,123,0.0,0.0,89,0.00,,,0.00,meteohub,2013-07-15 06:57:00,
2013-07-15 02:02:00,68.0,64.6,30.22,ESE,123,0.0,0.0,89,0.00,,,0.00,meteohub,2013-07-15 07:02:00,
2013-07-15 02:07:00,67.8,64.8,30.22,ESE,123,0.0,0.0,90,0.00,,,0.00,meteohub,2013-07-15 07:07:00,
2013-07-15 02:12:00,67.6,64.6,30.22,ESE,123,0.0,1.0,90,0.00,,,0.00,meteohub,2013-07-15 07:12:00,
2013-07-15 02:17:00,67.5,64.4,30.22,ESE,123,0.0,1.0,90,0.00,,,0.00,meteohub,2013-07-15 07:17:00,
2013-07-15 02:22:00,67.5,64.8,30.21,ESE,123,0.0,1.0,91,0.00,,,0.00,meteohub,2013-07-15 07:22:00,
2013-07-15 02:27:00,67.6,64.9,30.21,ESE,123,0.0,0.0,91,0.00,,,0.00,meteohub,2013-07-15 07:27:00,
2013-07-15 02:32:00,67.3,64.6,30.22,ESE,123,0.0,0.0,91,0.00,,,0.00,meteohub,2013-07-15 07:32:00,
2013-07-15 02:37:00,67.1,64.4,30.22,ESE,123,0.0,2.0,91,0.00,,,0.00,meteohub,2013-07-15 07:37:00,
2013-07-15 02:42:00,66.9,64.2,30.22,ESE,123,0.0,2.0,91,0.00,,,0.00,meteohub,2013-07-15 07:42:00,
2013-07-15 02:47:00,66.9,64.2,30.21,ESE,123,0.0,1.0,91,0.00,,,0.00,meteohub,2013-07-15 07:47:00,
2013-07-15 02:52:00,66.9,64.2,30.22,ESE,123,0.0,0.0,91,0.00,,,0.00,meteohub,2013-07-15 07:52:00,
2013-07-15 02:57:00,66.7,64.0,30.22,ESE,123,0.0,0.0,91,0.00,,,0.00,meteohub,2013-07-15 07:57:00,
2013-07-15 03:02:00,66.7,64.4,30.22,ESE,123,0.0,0.0,92,0.00,,,0.00,meteohub,2013-07-15 08:02:00,
2013-07-15 03:07:00,66.7,64.4,30.22,ESE,123,0.0,0.0,92,0.00,,,0.00,meteohub,2013-07-15 08:07:00,
2013-07-15 03:12:00,66.6,64.2,30.22,ESE,123,0.0,0.0,92,0.00,,,0.00,meteohub,2013-07-15 08:12:00,
2013-07-15 03:17:00,66.6,64.2,30.22,ESE,123,0.0,0.0,92,0.00,,,0.00,meteohub,2013-07-15 08:17:00,
2013-07-15 03:22:00,66.6,64.2,30.22,ESE,123,0.0,0.0,92,0.00,,,0.00,meteohub,2013-07-15 08:22:00,
2013-07-15 03:27:00,66.4,64.0,30.22,ESE,123,0.0,0.0,92,0.00,,,0.00,meteohub,2013-07-15 08:27:00,
2013-07-15 03:32:00,66.0,63.7,30.22,ESE,123,0.0,1.0,92,0.00,,,0.00,meteohub,2013-07-15 08:32:00,
2013-07-15 03:37:00,65.8,63.5,30.22,ESE,123,0.0,1.0,92,0.00,,,0.00,meteohub,2013-07-15 08:37:00,
2013-07-15 03:42:00,65.8,63.7,30.22,ESE,123,0.0,1.0,93,0.00,,,0.00,meteohub,2013-07-15 08:42:00,
2013-07-15 03:47:00,66.0,63.9,30.22,ESE,123,0.0,1.0,93,0.00,,,0.00,meteohub,2013-07-15 08:47:00,
2013-07-15 03:52:00,66.0,63.9,30.22,ESE,123,0.0,1.0,93,0.00,,,0.00,meteohub,2013-07-15 08:52:00,
2013-07-15 03:57:00,65.8,63.7,30.22,ESE,123,0.0,0.0,93,0.00,,,0.00,meteohub,2013-07-15 08:57:00,
2013-07-15 04:02:00,65.8,63.7,30.22,ESE,123,0.0,0.0,93,0.00,,,0.00,meteohub,2013-07-15 09:02:00,
2013-07-15 04:07:00,65.8,63.7,30.22,ESE,123,0.0,0.0,93,0.00,,,0.00,meteohub,2013-07-15 09:07:00,
2013-07-15 04:12:00,65.8,63.7,30.22,ESE,123,0.0,0.0,93,0.00,,,0.00,meteohub,2013-07-15 09:12:00,
2013-07-15 04:17:00,65.8,63.7,30.22,ESE,123,1.0,1.0,93,0.00,,,0.00,meteohub,2013-07-15 09:17:00,
2013-07-15 04:22:00,66.0,63.9,30.23,ESE,123,0.0,1.0,93,0.00,,,0.00,meteohub,2013-07-15 09:22:00,
2013-07-15 04:27:00,66.2,64.4,30.23,ESE,123,0.0,1.0,94,0.00,,,0.00,meteohub,2013-07-15 09:27:00,
2013-07-15 04:32:00,66.4,64.2,30.23,ESE,123,0.0,1.0,93,0.00,,,0.00,meteohub,2013-07-15 09:32:00,
2013-07-15 04:37:00,66.4,64.2,30.23,ESE,123,0.0,0.0,93,0.00,,,0.00,meteohub,2013-07-15 09:37:00,
2013-07-15 04:42:00,66.4,64.2,30.23,ESE,123,0.0,0.0,93,0.00,,,0.00,meteohub,2013-07-15 09:42:00,
2013-07-15 04:47:00,66.6,64.4,30.23,ESE,123,0.0,0.0,93,0.00,,,0.00,meteohub,2013-07-15 09:47:00,
2013-07-15 04:52:00,66.6,64.4,30.23,ESE,123,0.0,0.0,93,0.00,,,0.00,meteohub,2013-07-15 09:52:00,
2013-07-15 04:57:00,66.6,64.4,30.23,ESE,123,0.0,0.0,93,0.00,,,0.00,meteohub,2013-07-15 09:57:00,
2013-07-15 05:02:00,66.4,64.2,30.23,ESE,123,0.0,0.0,93,0.00,,,0.00,meteohub,2013-07-15 10:02:00,
2013-07-15 05:07:00,66.4,64.0,30.23,ESE,123,0.0,0.0,92,0.00,,,0.00,meteohub,2013-07-15 10:07:00,
2013-07-15 05:12:00,66.4,64.0,30.23,ESE,123,0.0,0.0,92,0.00,,,0.00,meteohub,2013-07-15 10:12:00,
2013-07-15 05:17:00,66.4,64.2,30.24,ESE,123,0.0,0.0,93,0.00,,,0.00,meteohub,2013-07-15 10:17:00,
2013-07-15 05:22:00,66.2,64.0,30.24,ESE,123,0.0,0.0,93,0.00,,,0.00,meteohub,2013-07-15 10:22:00,
2013-07-15 05:27:00,66.2,64.0,30.24,ESE,123,0.0,0.0,93,0.00,,,0.00,meteohub,2013-07-15 10:27:00,
2013-07-15 05:32:00,66.0,63.9,30.24,ESE,123,0.0,0.0,93,0.00,,,0.00,meteohub,2013-07-15 10:32:00,
2013-07-15 05:37:00,66.0,63.9,30.24,ESE,123,0.0,0.0,93,0.00,,,0.00,meteohub,2013-07-15 10:37:00,
2013-07-15 05:42:00,65.8,63.7,30.24,ESE,123,0.0,0.0,93,0.00,,,0.00,meteohub,2013-07-15 10:42:00,
2013-07-15 05:47:00,65.8,63.7,30.24,ESE,123,0.0,0.0,93,0.00,,,0.00,meteohub,2013-07-15 10:47:00,
2013-07-15 05:52:00,66.0,63.9,30.24,ESE,123,0.0,0.0,93,0.00,,,0.00,meteohub,2013-07-15 10:52:00,
2013-07-15 05:57:00,66.0,63.9,30.24,ESE,123,0.0,0.0,93,0.00,,,0.00,meteohub,2013-07-15 10:57:00,
2013-07-15 06:02:00,66.4,64.2,30.24,ESE,123,0.0,0.0,93,0.00,,,0.00,meteohub,2013-07-15 11:02:00,
2013-07-15 06:07:00,66.6,64.4,30.24,ESE,123,0.0,0.0,93,0.00,,,0.00,meteohub,2013-07-15 11:07:00,
2013-07-15 06:12:00,66.9,65.1,30.24,ESE,123,0.0,0.0,94,0.00,,,0.00,meteohub,2013-07-15 11:12:00,
2013-07-15 06:17:00,67.5,65.7,30.24,ESE,123,0.0,0.0,94,0.00,,,0.00,meteohub,2013-07-15 11:17:00,
2013-07-15 06:22:00,67.6,65.8,30.24,ESE,123,0.0,0.0,94,0.00,,,0.00,meteohub,2013-07-15 11:22:00,
2013-07-15 06:27:00,68.2,66.4,30.24,ESE,123,0.0,0.0,94,0.00,,,0.00,meteohub,2013-07-15 11:27:00,
2013-07-15 06:32:00,68.5,66.4,30.24,ESE,123,0.0,0.0,93,0.00,,,0.00,meteohub,2013-07-15 11:32:00,
2013-07-15 06:37:00,68.9,66.6,30.24,ESE,123,0.0,0.0,92,0.00,,,0.00,meteohub,2013-07-15 11:37:00,
2013-07-15 06:42:00,69.3,66.9,30.24,ESE,123,0.0,0.0,92,0.00,,,0.00,meteohub,2013-07-15 11:42:00,
2013-07-15 06:47:00,69.6,66.9,30.24,ESE,123,0.0,0.0,91,0.00,,,0.00,meteohub,2013-07-15 11:47:00,
2013-07-15 06:52:00,70.3,67.6,30.25,ESE,123,0.0,0.0,91,0.00,,,0.00,meteohub,2013-07-15 11:52:00,
2013-07-15 06:57:00,70.9,67.8,30.25,ESE,123,0.0,0.0,90,0.00,,,0.00,meteohub,2013-07-15 11:57:00,
2013-07-15 07:02:00,71.6,68.2,30.25,ESE,123,0.0,0.0,89,0.00,,,0.00,meteohub,2013-07-15 12:02:00,
2013-07-15 07:07:00,72.5,68.7,30.25,ESE,123,0.0,0.0,88,0.00,,,0.00,meteohub,2013-07-15 12:07:00,
2013-07-15 07:12:00,73.6,69.1,30.25,ESE,123,0.0,0.0,86,0.00,,,0.00,meteohub,2013-07-15 12:12:00,
2013-07-15 07:17:00,74.7,69.8,30.25,ESE,123,0.0,0.0,85,0.00,,,0.00,meteohub,2013-07-15 12:17:00,
2013-07-15 07:22:00,75.0,68.7,30.25,ESE,123,0.0,0.0,81,0.00,,,0.00,meteohub,2013-07-15 12:22:00,
2013-07-15 07:27:00,75.4,69.1,30.25,ESE,123,0.0,0.0,81,0.00,,,0.00,meteohub,2013-07-15 12:27:00,
2013-07-15 07:32:00,75.4,69.1,30.25,ESE,123,0.0,0.0,81,0.00,,,0.00,meteohub,2013-07-15 12:32:00,
2013-07-15 07:37:00,74.8,68.5,30.25,ESE,123,0.0,1.0,81,0.00,,,0.00,meteohub,2013-07-15 12:37:00,
2013-07-15 07:42:00,75.0,69.4,30.25,ESE,123,0.0,2.0,83,0.00,,,0.00,meteohub,2013-07-15 12:42:00,
2013-07-15 07:47:00,75.2,69.6,30.25,ESE,123,0.0,2.0,83,0.00,,,0.00,meteohub,2013-07-15 12:47:00,
2013-07-15 07:52:00,75.6,70.3,30.25,ESE,123,1.0,1.0,84,0.00,,,0.00,meteohub,2013-07-15 12:52:00,
2013-07-15 07:57:00,75.9,70.0,30.25,ESE,123,0.0,2.0,82,0.00,,,0.00,meteohub,2013-07-15 12:57:00,
2013-07-15 08:02:00,76.3,70.3,30.25,ESE,123,1.0,2.0,82,0.00,,,0.00,meteohub,2013-07-15 13:02:00,
2013-07-15 08:07:00,76.6,70.3,30.25,ESE,123,0.0,3.0,81,0.00,,,0.00,meteohub,2013-07-15 13:07:00,
2013-07-15 08:12:00,77.2,70.9,30.25,ESE,123,3.0,3.0,81,0.00,,,0.00,meteohub,2013-07-15 13:12:00,
2013-07-15 08:17:00,77.4,70.7,30.25,ESE,123,0.0,3.0,80,0.00,,,0.00,meteohub,2013-07-15 13:17:00,
2013-07-15 08:22:00,78.1,71.8,30.25,ESE,123,0.0,3.0,81,0.00,,,0.00,meteohub,2013-07-15 13:22:00,
2013-07-15 08:27:00,78.6,71.6,30.25,ESE,123,0.0,3.0,79,0.00,,,0.00,meteohub,2013-07-15 13:27:00,
2013-07-15 08:32:00,79.2,71.2,30.25,ESE,123,3.0,3.0,77,0.00,,,0.00,meteohub,2013-07-15 13:32:00,
2013-07-15 08:37:00,79.5,70.5,30.25,ESE,123,0.0,5.0,74,0.00,,,0.00,meteohub,2013-07-15 13:37:00,
2013-07-15 08:42:00,80.2,71.6,30.25,ESE,123,0.0,5.0,75,0.00,,,0.00,meteohub,2013-07-15 13:42:00,
2013-07-15 08:47:00,80.4,70.9,30.25,ESE,123,0.0,5.0,73,0.00,,,0.00,meteohub,2013-07-15 13:47:00,
2013-07-15 08:52:00,80.8,70.5,30.25,ESE,123,4.0,8.0,71,0.00,,,0.00,meteohub,2013-07-15 13:52:00,
2013-07-15 08:57:00,81.1,70.9,30.25,ESE,123,4.0,8.0,71,0.00,,,0.00,meteohub,2013-07-15 13:57:00,
2013-07-15 09:02:00,81.1,70.9,30.25,ESE,123,4.0,8.0,71,0.00,,,0.00,meteohub,2013-07-15 14:02:00,
2013-07-15 09:07:00,81.5,71.2,30.25,ESE,123,5.0,8.0,71,0.00,,,0.00,meteohub,2013-07-15 14:07:00,
2013-07-15 09:12:00,81.7,71.4,30.25,ESE,123,1.0,8.0,71,0.00,,,0.00,meteohub,2013-07-15 14:12:00,
2013-07-15 09:17:00,82.0,71.2,30.25,ESE,123,4.0,7.0,70,0.00,,,0.00,meteohub,2013-07-15 14:17:00,
2013-07-15 09:22:00,82.4,71.6,30.25,ESE,123,3.0,7.0,70,0.00,,,0.00,meteohub,2013-07-15 14:22:00,
2013-07-15 09:27:00,82.8,72.0,30.26,ESE,123,4.0,5.0,70,0.00,,,0.00,meteohub,2013-07-15 14:27:00,
2013-07-15 09:32:00,82.6,71.4,30.25,ESE,123,0.0,5.0,69,0.00,,,0.00,meteohub,2013-07-15 14:32:00,
2013-07-15 09:37:00,82.6,71.8,30.25,ESE,123,1.0,5.0,70,0.00,,,0.00,meteohub,2013-07-15 14:37:00,
2013-07-15 09:42:00,82.9,72.1,30.25,ESE,123,3.0,5.0,70,0.00,,,0.00,meteohub,2013-07-15 14:42:00,
2013-07-15 09:47:00,83.3,71.6,30.25,ESE,123,1.0,5.0,68,0.00,,,0.00,meteohub,2013-07-15 14:47:00,
2013-07-15 09:52:00,83.1,72.3,30.25,ESE,123,1.0,5.0,70,0.00,,,0.00,meteohub,2013-07-15 14:52:00,
2013-07-15 09:57:00,83.3,72.1,30.25,ESE,123,4.0,7.0,69,0.00,,,0.00,meteohub,2013-07-15 14:57:00,
2013-07-15 10:02:00,83.7,72.0,30.25,ESE,123,0.0,7.0,68,0.00,,,0.00,meteohub,2013-07-15 15:02:00,
2013-07-15 10:07:00,83.8,72.1,30.25,ESE,123,1.0,5.0,68,0.00,,,0.00,meteohub,2013-07-15 15:07:00,
2013-07-15 10:12:00,84.0,72.0,30.25,ESE,123,1.0,5.0,67,0.00,,,0.00,meteohub,2013-07-15 15:12:00,
2013-07-15 10:17:00,84.6,72.3,30.25,ESE,123,1.0,4.0,67,0.00,,,0.00,meteohub,2013-07-15 15:17:00,
2013-07-15 10:23:00,85.1,71.6,30.25,ESE,123,0.0,4.0,64,0.00,,,0.00,meteohub,2013-07-15 15:23:00,
2013-07-15 10:28:00,85.6,73.0,30.25,ESE,123,0.0,4.0,66,0.00,,,0.00,meteohub,2013-07-15 15:28:00,
2013-07-15 10:33:00,86.0,71.4,30.25,ESE,123,0.0,4.0,62,0.00,,,0.00,meteohub,2013-07-15 15:33:00,
2013-07-15 10:38:00,86.2,72.1,30.25,ESE,123,0.0,4.0,63,0.00,,,0.00,meteohub,2013-07-15 15:38:00,
2013-07-15 10:43:00,86.2,71.1,30.25,ESE,123,1.0,7.0,61,0.00,,,0.00,meteohub,2013-07-15 15:43:00,
2013-07-15 10:48:00,86.0,71.4,30.25,ESE,123,4.0,7.0,62,0.00,,,0.00,meteohub,2013-07-15 15:48:00,
2013-07-15 10:54:00,85.8,71.2,30.25,ESE,123,0.0,9.0,62,0.00,,,0.00,meteohub,2013-07-15 15:54:00,
2013-07-15 10:59:00,85.5,71.4,30.25,SE,130,4.0,9.0,63,0.00,,,0.00,meteohub,2013-07-15 15:59:00,
2013-07-15 11:04:00,85.6,72.1,30.25,SE,130,6.0,9.0,64,0.00,,,0.00,meteohub,2013-07-15 16:04:00,
2013-07-15 11:09:00,85.5,71.4,30.25,SE,130,0.0,7.0,63,0.00,,,0.00,meteohub,2013-07-15 16:09:00,
2013-07-15 11:15:00,85.3,71.8,30.25,SE,130,3.0,7.0,64,0.00,,,0.00,meteohub,2013-07-15 16:15:00,
2013-07-15 11:20:00,85.8,71.2,30.25,SE,130,2.0,5.0,62,0.00,,,0.00,meteohub,2013-07-15 16:20:00,
2013-07-15 11:25:00,86.5,72.0,30.25,SE,130,2.0,5.0,62,0.00,,,0.00,meteohub,2013-07-15 16:25:00,
2013-07-15 11:30:00,86.5,71.4,30.25,East,100,5.0,8.0,61,0.00,,,0.00,meteohub,2013-07-15 16:30:00,
2013-07-15 11:36:00,86.5,72.5,30.25,East,100,2.0,8.0,63,0.00,,,0.00,meteohub,2013-07-15 16:36:00,
2013-07-15 11:41:00,86.7,71.6,30.24,East,100,0.0,8.0,61,0.00,,,0.00,meteohub,2013-07-15 16:41:00,
2013-07-15 11:46:00,87.1,72.5,30.24,ENE,66,4.0,11.0,62,0.00,,,0.00,meteohub,2013-07-15 16:46:00,
2013-07-15 11:51:00,87.3,71.6,30.24,East,90,1.0,17.0,60,0.00,,,0.00,meteohub,2013-07-15 16:51:00,
2013-07-15 11:57:00,86.9,70.3,30.24,ESE,103,1.0,17.0,58,0.00,,,0.00,meteohub,2013-07-15 16:57:00,
2013-07-15 12:02:00,87.1,72.0,30.24,ESE,103,0.0,8.0,61,0.00,,,0.00,meteohub,2013-07-15 17:02:00,
2013-07-15 12:08:00,87.3,71.6,30.24,East,98,5.0,8.0,60,0.00,,,0.00,meteohub,2013-07-15 17:08:00,
2013-07-15 12:13:00,86.7,70.7,30.24,East,98,2.0,8.0,59,0.00,,,0.00,meteohub,2013-07-15 17:13:00,
2013-07-15 12:18:00,86.4,70.9,30.24,East,98,6.0,8.0,60,0.00,,,0.00,meteohub,2013-07-15 17:18:00,
2013-07-15 12:23:00,86.4,70.9,30.24,East,98,0.0,8.0,60,0.00,,,0.00,meteohub,2013-07-15 17:23:00,
2013-07-15 12:28:00,86.9,72.9,30.24,East,98,0.0,7.0,63,0.00,,,0.00,meteohub,2013-07-15 17:28:00,
2013-07-15 12:34:00,87.4,71.4,30.24,ESE,105,0.0,7.0,59,0.00,,,0.00,meteohub,2013-07-15 17:34:00,
2013-07-15 12:39:00,88.0,70.9,30.24,ESE,105,3.0,7.0,57,0.00,,,0.00,meteohub,2013-07-15 17:39:00,
2013-07-15 12:44:00,88.2,71.1,30.23,ESE,105,0.0,7.0,57,0.00,,,0.00,meteohub,2013-07-15 17:44:00,
2013-07-15 12:50:00,88.5,72.3,30.23,ESE,105,1.0,7.0,59,0.00,,,0.00,meteohub,2013-07-15 17:50:00,
2013-07-15 12:55:00,88.5,70.3,30.23,ESE,105,1.0,3.0,55,0.00,,,0.00,meteohub,2013-07-15 17:55:00,
2013-07-15 13:00:00,88.2,71.1,30.23,ESE,111,5.0,8.0,57,0.00,,,0.00,meteohub,2013-07-15 18:00:00,
2013-07-15 13:05:00,88.0,71.4,30.23,ESE,111,4.0,8.0,58,0.00,,,0.00,meteohub,2013-07-15 18:05:00,
2013-07-15 13:10:00,88.2,71.1,30.23,ESE,111,2.0,8.0,57,0.00,,,0.00,meteohub,2013-07-15 18:10:00,
2013-07-15 13:16:00,88.3,70.7,30.23,ESE,111,1.0,7.0,56,0.00,,,0.00,meteohub,2013-07-15 18:16:00,
2013-07-15 13:21:00,88.2,70.0,30.23,ESE,111,0.0,7.0,55,0.00,,,0.00,meteohub,2013-07-15 18:21:00,
2013-07-15 13:26:00,88.5,73.4,30.23,ESE,111,0.0,7.0,61,0.00,,,0.00,meteohub,2013-07-15 18:26:00,
2013-07-15 13:31:00,88.9,71.6,30.23,ESE,111,0.0,7.0,57,0.00,,,0.00,meteohub,2013-07-15 18:31:00,
2013-07-15 13:37:00,89.1,71.2,30.22,ESE,107,1.0,5.0,56,0.00,,,0.00,meteohub,2013-07-15 18:37:00,
2013-07-15 13:42:00,89.1,70.2,30.22,ESE,107,2.0,8.0,54,0.00,,,0.00,meteohub,2013-07-15 18:42:00,
2013-07-15 13:47:00,89.1,70.7,30.22,ESE,108,0.0,8.0,55,0.00,,,0.00,meteohub,2013-07-15 18:47:00,
2013-07-15 13:52:00,88.9,70.7,30.22,ESE,108,0.0,8.0,55,0.00,,,0.00,meteohub,2013-07-15 18:52:00,
2013-07-15 13:57:00,88.3,69.6,30.22,ESE,108,0.0,7.0,54,0.00,,,0.00,meteohub,2013-07-15 18:57:00,
2013-07-15 14:02:00,88.2,71.1,30.22,ESE,108,2.0,5.0,57,0.00,,,0.00,meteohub,2013-07-15 19:02:00,
2013-07-15 14:07:00,87.6,71.6,30.22,ESE,108,3.0,4.0,59,0.00,,,0.00,meteohub,2013-07-15 19:07:00,
2013-07-15 14:12:00,87.6,71.1,30.22,ESE,108,1.0,5.0,58,0.00,,,0.00,meteohub,2013-07-15 19:12:00,
2013-07-15 14:17:00,88.0,71.4,30.22,ESE,108,1.0,5.0,58,0.00,,,0.00,meteohub,2013-07-15 19:17:00,
2013-07-15 14:22:00,88.3,71.2,30.22,ESE,108,3.0,5.0,57,0.00,,,0.00,meteohub,2013-07-15 19:22:00,
2013-07-15 14:27:00,88.5,70.3,30.22,SE,128,5.0,7.0,55,0.00,,,0.00,meteohub,2013-07-15 19:27:00,
2013-07-15 14:32:00,88.5,70.3,30.22,SE,128,1.0,7.0,55,0.00,,,0.00,meteohub,2013-07-15 19:32:00,
2013-07-15 14:38:00,88.5,70.9,30.22,SE,128,0.0,7.0,56,0.00,,,0.00,meteohub,2013-07-15 19:38:00,
2013-07-15 14:43:00,89.1,72.3,30.22,SE,128,3.0,7.0,58,0.00,,,0.00,meteohub,2013-07-15 19:43:00,
2013-07-15 14:48:00,88.9,72.7,30.22,East,96,7.0,7.0,59,0.00,,,0.00,meteohub,2013-07-15 19:48:00,
2013-07-15 14:53:00,88.0,72.3,30.22,ENE,72,8.0,8.0,60,0.00,,,0.00,meteohub,2013-07-15 19:53:00,
2013-07-15 14:59:00,88.0,72.3,30.22,ENE,67,7.0,9.0,60,0.00,,,0.00,meteohub,2013-07-15 19:59:00,
2013-07-15 15:04:00,88.0,72.3,30.21,ENE,66,8.0,9.0,60,0.00,,,0.00,meteohub,2013-07-15 20:04:00,
2013-07-15 15:09:00,87.6,72.0,30.21,NE,54,6.0,10.0,60,0.00,,,0.00,meteohub,2013-07-15 20:09:00,
2013-07-15 15:14:00,87.6,72.5,30.21,NE,56,5.0,10.0,61,0.00,,,0.00,meteohub,2013-07-15 20:14:00,
2013-07-15 15:20:00,87.4,73.2,30.21,NE,54,4.0,10.0,63,0.00,,,0.00,meteohub,2013-07-15 20:20:00,
2013-07-15 15:25:00,87.6,73.0,30.21,ENE,75,5.0,10.0,62,0.00,,,0.00,meteohub,2013-07-15 20:25:00,
2013-07-15 15:30:00,88.0,73.8,30.21,ENE,74,5.0,10.0,63,0.00,,,0.00,meteohub,2013-07-15 20:30:00,
2013-07-15 15:35:00,87.8,74.1,30.21,ENE,74,7.0,12.0,64,0.00,,,0.00,meteohub,2013-07-15 20:35:00,
2013-07-15 15:41:00,88.0,74.7,30.21,ENE,72,5.0,12.0,65,0.00,,,0.00,meteohub,2013-07-15 20:41:00,
2013-07-15 15:46:00,88.3,74.1,30.21,East,85,8.0,12.0,63,0.00,,,0.00,meteohub,2013-07-15 20:46:00,
2013-07-15 15:51:00,88.3,74.1,30.21,East,83,7.0,10.0,63,0.00,,,0.00,meteohub,2013-07-15 20:51:00,
2013-07-15 15:57:00,88.2,74.5,30.21,East,94,6.0,10.0,64,0.00,,,0.00,meteohub,2013-07-15 20:57:00,
2013-07-15 16:02:00,88.2,74.5,30.21,East,87,7.0,11.0,64,0.00,,,0.00,meteohub,2013-07-15 21:02:00,
2013-07-15 16:07:00,87.6,74.3,30.21,East,83,8.0,11.0,65,0.00,,,0.00,meteohub,2013-07-15 21:07:00,
2013-07-15 16:12:00,87.4,74.3,30.21,East,95,8.0,11.0,65,0.00,,,0.00,meteohub,2013-07-15 21:12:00,
2013-07-15 16:17:00,87.3,74.5,30.21,East,90,9.0,11.0,66,0.00,,,0.00,meteohub,2013-07-15 21:17:00,
2013-07-15 16:22:00,87.3,74.1,30.21,East,86,6.0,11.0,65,0.00,,,0.00,meteohub,2013-07-15 21:22:00,
2013-07-15 16:27:00,87.1,73.9,30.21,ENE,77,7.0,11.0,65,0.00,,,0.00,meteohub,2013-07-15 21:27:00,
2013-07-15 16:32:00,87.1,74.3,30.20,ENE,74,9.0,11.0,66,0.00,,,0.00,meteohub,2013-07-15 21:32:00,
2013-07-15 16:38:00,86.9,74.7,30.20,ENE,77,7.0,14.0,67,0.00,,,0.00,meteohub,2013-07-15 21:38:00,
2013-07-15 16:43:00,87.1,74.8,30.20,ENE,68,8.0,14.0,67,0.00,,,0.00,meteohub,2013-07-15 21:43:00,
2013-07-15 16:48:00,86.7,73.9,30.20,East,90,7.0,14.0,66,0.00,,,0.00,meteohub,2013-07-15 21:48:00,
2013-07-15 16:54:00,86.7,74.5,30.20,East,82,7.0,11.0,67,0.00,,,0.00,meteohub,2013-07-15 21:54:00,
2013-07-15 16:59:00,87.1,74.3,30.19,East,84,6.0,11.0,66,0.00,,,0.00,meteohub,2013-07-15 21:59:00,
2013-07-15 17:04:00,87.3,74.5,30.19,East,88,5.0,11.0,66,0.00,,,0.00,meteohub,2013-07-15 22:04:00,
2013-07-15 17:09:00,87.3,75.0,30.19,East,83,8.0,11.0,67,0.00,,,0.00,meteohub,2013-07-15 22:09:00,
2013-07-15 17:14:00,87.3,74.5,30.19,ESE,102,7.0,11.0,66,0.00,,,0.00,meteohub,2013-07-15 22:14:00,
2013-07-15 17:19:00,87.3,74.5,30.19,East,101,8.0,11.0,66,0.00,,,0.00,meteohub,2013-07-15 22:19:00,
2013-07-15 17:25:00,87.3,75.0,30.19,ESE,105,5.0,11.0,67,0.00,,,0.00,meteohub,2013-07-15 22:25:00,
2013-07-15 17:30:00,87.3,74.1,30.19,ESE,109,9.0,11.0,65,0.00,,,0.00,meteohub,2013-07-15 22:30:00,
2013-07-15 17:36:00,86.7,74.5,30.19,East,101,8.0,10.0,67,0.00,,,0.00,meteohub,2013-07-15 22:36:00,
2013-07-15 17:41:00,86.5,74.3,30.19,East,86,8.0,10.0,67,0.00,,,0.00,meteohub,2013-07-15 22:41:00,
2013-07-15 17:46:00,86.4,75.0,30.19,East,85,7.0,10.0,69,0.00,,,0.00,meteohub,2013-07-15 22:46:00,
2013-07-15 17:51:00,86.4,74.5,30.19,East,85,6.0,10.0,68,0.00,,,0.00,meteohub,2013-07-15 22:51:00,
2013-07-15 17:56:00,86.4,74.5,30.19,East,87,11.0,11.0,68,0.00,,,0.00,meteohub,2013-07-15 22:56:00,
2013-07-15 18:01:00,86.4,74.5,30.19,East,94,7.0,11.0,68,0.00,,,0.00,meteohub,2013-07-15 23:01:00,
2013-07-15 18:06:00,86.2,73.9,30.19,ESE,113,5.0,11.0,67,0.00,,,0.00,meteohub,2013-07-15 23:06:00,
2013-07-15 18:11:00,86.2,74.8,30.19,ESE,108,8.0,11.0,69,0.00,,,0.00,meteohub,2013-07-15 23:11:00,
2013-07-15 18:17:00,85.6,73.4,30.19,East,97,10.0,11.0,67,0.00,,,0.00,meteohub,2013-07-15 23:17:00,
2013-07-15 18:22:00,85.5,73.8,30.19,ESE,108,5.0,13.0,68,0.00,,,0.00,meteohub,2013-07-15 23:22:00,
2013-07-15 18:27:00,85.3,73.6,30.19,ESE,106,7.0,13.0,68,0.00,,,0.00,meteohub,2013-07-15 23:27:00,
2013-07-15 18:32:00,85.1,73.8,30.19,ESE,103,7.0,13.0,69,0.00,,,0.00,meteohub,2013-07-15 23:32:00,
2013-07-15 18:37:00,85.1,73.4,30.19,East,98,7.0,9.0,68,0.00,,,0.00,meteohub,2013-07-15 23:37:00,
2013-07-15 18:42:00,84.9,73.6,30.19,ESE,103,5.0,9.0,69,0.00,,,0.00,meteohub,2013-07-15 23:42:00,
2013-07-15 18:47:00,84.9,73.6,30.19,East,98,7.0,9.0,69,0.00,,,0.00,meteohub,2013-07-15 23:47:00,
2013-07-15 18:52:00,84.7,73.4,30.19,East,99,5.0,9.0,69,0.00,,,0.00,meteohub,2013-07-15 23:52:00,
2013-07-15 18:57:00,84.4,73.0,30.19,ESE,107,3.0,9.0,69,0.00,,,0.00,meteohub,2013-07-15 23:57:00,
2013-07-15 19:03:00,84.2,73.4,30.19,ESE,109,5.0,9.0,70,0.00,,,0.00,meteohub,2013-07-16 00:03:00,
2013-07-15 19:08:00,84.2,73.8,30.19,ESE,109,3.0,9.0,71,0.00,,,0.00,meteohub,2013-07-16 00:08:00,
2013-07-15 19:13:00,84.2,73.4,30.18,ESE,111,3.0,9.0,70,0.00,,,0.00,meteohub,2013-07-16 00:13:00,
2013-07-15 19:18:00,84.0,73.9,30.19,ESE,121,7.0,9.0,72,0.00,,,0.00,meteohub,2013-07-16 00:18:00,
2013-07-15 19:24:00,83.8,73.8,30.19,SE,128,7.0,9.0,72,0.00,,,0.00,meteohub,2013-07-16 00:24:00,
2013-07-15 19:29:00,83.5,73.6,30.19,SE,127,3.0,10.0,72,0.00,,,0.00,meteohub,2013-07-16 00:29:00,
2013-07-15 19:34:00,83.1,73.6,30.19,SE,128,7.0,10.0,73,0.00,,,0.00,meteohub,2013-07-16 00:34:00,
2013-07-15 19:37:00,82.9,73.8,30.19,SE,128,2.0,10.0,74,0.00,,,0.00,meteohub,2013-07-16 00:37:00,
2013-07-15 19:42:00,82.8,73.6,30.19,SE,130,4.0,10.0,74,0.00,,,0.00,meteohub,2013-07-16 00:42:00,
2013-07-15 19:47:00,82.6,73.4,30.19,SE,132,7.0,9.0,74,0.00,,,0.00,meteohub,2013-07-16 00:47:00,
2013-07-15 19:52:00,82.2,73.0,30.19,SE,132,2.0,9.0,74,0.00,,,0.00,meteohub,2013-07-16 00:52:00,
2013-07-15 19:57:00,82.0,73.4,30.19,SE,132,3.0,8.0,75,0.00,,,0.00,meteohub,2013-07-16 00:57:00,
2013-07-15 20:02:00,81.9,73.2,30.19,SE,132,3.0,8.0,75,0.00,,,0.00,meteohub,2013-07-16 01:02:00,
2013-07-15 20:08:00,81.9,73.2,30.19,SE,132,1.0,7.0,75,0.00,,,0.00,meteohub,2013-07-16 01:08:00,
2013-07-15 20:14:00,81.7,73.0,30.19,SE,132,0.0,7.0,75,0.00,,,0.00,meteohub,2013-07-16 01:14:00,
2013-07-15 20:19:00,81.5,73.2,30.19,SE,132,0.0,6.0,76,0.00,,,0.00,meteohub,2013-07-16 01:19:00,
2013-07-15 20:24:00,81.3,73.0,30.19,SE,132,0.0,6.0,76,0.00,,,0.00,meteohub,2013-07-16 01:24:00,
2013-07-15 20:29:00,81.3,73.0,30.19,SE,132,0.0,5.0,76,0.00,,,0.00,meteohub,2013-07-16 01:29:00,
2013-07-15 20:34:00,81.1,72.9,30.19,SE,132,0.0,5.0,76,0.00,,,0.00,meteohub,2013-07-16 01:34:00,
2013-07-15 20:39:00,81.0,72.7,30.19,SE,132,2.0,5.0,76,0.00,,,0.00,meteohub,2013-07-16 01:39:00,
2013-07-15 20:44:00,80.8,72.5,30.19,SE,132,3.0,4.0,76,0.00,,,0.00,meteohub,2013-07-16 01:44:00,
2013-07-15 20:49:00,80.4,72.5,30.20,SE,132,0.0,4.0,77,0.00,,,0.00,meteohub,2013-07-16 01:49:00,
2013-07-15 20:55:00,80.4,72.5,30.20,SE,132,0.0,5.0,77,0.00,,,0.00,meteohub,2013-07-16 01:55:00,
2013-07-15 21:00:00,80.2,72.3,30.20,SE,132,0.0,5.0,77,0.00,,,0.00,meteohub,2013-07-16 02:00:00,
2013-07-15 21:05:00,80.1,72.5,30.20,SE,132,0.0,4.0,78,0.00,,,0.00,meteohub,2013-07-16 02:05:00,
2013-07-15 21:10:00,79.9,72.3,30.20,SE,132,0.0,4.0,78,0.00,,,0.00,meteohub,2013-07-16 02:10:00,
2013-07-15 21:16:00,79.5,72.5,30.20,SE,132,0.0,3.0,79,0.00,,,0.00,meteohub,2013-07-16 02:16:00,
2013-07-15 21:21:00,79.5,72.5,30.20,SE,132,0.0,3.0,79,0.00,,,0.00,meteohub,2013-07-16 02:21:00,
2013-07-15 21:26:00,79.3,72.3,30.21,SE,132,0.0,2.0,79,0.00,,,0.00,meteohub,2013-07-16 02:26:00,
2013-07-15 21:31:00,79.0,72.3,30.21,SE,132,0.0,1.0,80,0.00,,,0.00,meteohub,2013-07-16 02:31:00,
2013-07-15 21:36:00,78.8,72.1,30.21,SE,132,0.0,1.0,80,0.00,,,0.00,meteohub,2013-07-16 02:36:00,
2013-07-15 21:41:00,78.4,72.1,30.21,SE,132,0.0,2.0,81,0.00,,,0.00,meteohub,2013-07-16 02:41:00,
2013-07-15 21:47:00,78.4,72.1,30.21,SE,132,0.0,2.0,81,0.00,,,0.00,meteohub,2013-07-16 02:47:00,
2013-07-15 21:52:00,78.3,72.3,30.21,SE,132,0.0,3.0,82,0.00,,,0.00,meteohub,2013-07-16 02:52:00,
2013-07-15 21:57:00,77.7,71.8,30.21,SE,132,0.0,3.0,82,0.00,,,0.00,meteohub,2013-07-16 02:57:00,
2013-07-15 22:03:00,77.4,71.8,30.22,SE,132,1.0,3.0,83,0.00,,,0.00,meteohub,2013-07-16 03:03:00,
2013-07-15 22:08:00,77.0,71.8,30.22,SE,132,1.0,3.0,84,0.00,,,0.00,meteohub,2013-07-16 03:08:00,
2013-07-15 22:13:00,76.8,71.6,30.22,SE,132,0.0,3.0,84,0.00,,,0.00,meteohub,2013-07-16 03:13:00,
2013-07-15 22:18:00,76.8,72.0,30.22,SE,132,0.0,3.0,85,0.00,,,0.00,meteohub,2013-07-16 03:18:00,
2013-07-15 22:24:00,77.0,72.1,30.22,SE,132,0.0,3.0,85,0.00,,,0.00,meteohub,2013-07-16 03:24:00,
2013-07-15 22:30:00,77.0,72.1,30.22,SE,132,0.0,2.0,85,0.00,,,0.00,meteohub,2013-07-16 03:30:00,
2013-07-15 22:35:00,76.8,72.0,30.22,SE,132,0.0,1.0,85,0.00,,,0.00,meteohub,2013-07-16 03:35:00,
2013-07-15 22:41:00,76.8,72.0,30.22,SE,132,0.0,1.0,85,0.00,,,0.00,meteohub,2013-07-16 03:41:00,
2013-07-15 22:46:00,76.6,71.8,30.22,SE,132,0.0,1.0,85,0.00,,,0.00,meteohub,2013-07-16 03:46:00,
2013-07-15 22:51:00,76.3,71.4,30.22,SE,132,0.0,1.0,85,0.00,,,0.00,meteohub,2013-07-16 03:51:00,
2013-07-15 22:56:00,76.3,71.8,30.22,SE,132,1.0,1.0,86,0.00,,,0.00,meteohub,2013-07-16 03:56:00,
2013-07-15 23:01:00,76.5,72.0,30.22,SE,132,0.0,3.0,86,0.00,,,0.00,meteohub,2013-07-16 04:01:00,
2013-07-15 23:02:00,76.5,72.0,30.22,SE,132,0.0,3.0,86,0.00,,,0.00,meteohub,2013-07-16 04:02:00,
2013-07-15 23:05:00,76.6,72.1,30.22,SE,132,0.0,4.0,86,0.00,,,0.00,meteohub,2013-07-16 04:05:00,
2013-07-15 23:07:00,76.6,71.8,30.22,SE,132,0.0,4.0,85,0.00,,,0.00,meteohub,2013-07-16 04:07:00,
2013-07-15 23:12:00,76.8,72.0,30.22,SE,132,0.0,4.0,85,0.00,,,0.00,meteohub,2013-07-16 04:12:00,
2013-07-15 23:17:00,77.0,72.1,30.22,SE,132,0.0,3.0,85,0.00,,,0.00,meteohub,2013-07-16 04:17:00,
2013-07-15 23:22:00,77.0,72.1,30.22,SE,132,0.0,3.0,85,0.00,,,0.00,meteohub,2013-07-16 04:22:00,
2013-07-15 23:27:00,77.2,72.3,30.22,SE,132,1.0,1.0,85,0.00,,,0.00,meteohub,2013-07-16 04:27:00,
2013-07-15 23:32:00,77.0,72.1,30.22,SE,132,0.0,2.0,85,0.00,,,0.00,meteohub,2013-07-16 04:32:00,
2013-07-15 23:37:00,76.6,71.8,30.22,SE,132,0.0,2.0,85,0.00,,,0.00,meteohub,2013-07-16 04:37:00,
2013-07-15 23:42:00,76.5,72.0,30.22,SE,132,0.0,2.0,86,0.00,,,0.00,meteohub,2013-07-16 04:42:00,
2013-07-15 23:47:00,76.5,72.0,30.22,SE,132,0.0,1.0,86,0.00,,,0.00,meteohub,2013-07-16 04:47:00,
2013-07-15 23:52:00,76.3,72.1,30.22,SE,132,0.0,1.0,87,0.00,,,0.00,meteohub,2013-07-16 04:52:00,
2013-07-15 23:57:00,76.1,72.0,30.21,SE,132,0.0,1.0,87,0.00,,,0.00,meteohub,2013-07-16 04:57:00,